Location: �terpigny
(49.8910°N, 2.9249°E)
Time: 07:17:39
(UTC+00:00)

NANOSAT C BR1 - Pass Details

Date: 11 July 2022
Orbit: 584 x 599 km, 98.0° (Epoch: 14 August)

Event Time Altitude Azimuth Distance (km) Brightness Sun altitude
Rises 02:37:50 0° 9° (N) 2,859 ? -9.3°
Reaches altitude 10° 02:40:04 10° 3° (N) 1,953 ? -9.1°
Maximum altitude 02:44:07 46° 291° (WNW) 812 ? -8.7°
Enters shadow 02:48:02 11° 218° (SW) 1,891 ? -8.3°
